TimeSAST,TemperatureF,Dew PointF,Humidity,Sea Level PressureIn,VisibilityMPH,Wind Direction,Wind SpeedMPH,Gust SpeedMPH,PrecipitationIn,Events,Conditions,WindDirDegrees,DateUTC
2:00 AM,67,40,25,30.05,12,NNW,17.9,,,,,340,2013-07-13 00:00:00
5:00 AM,64.4,37.4,37,30.01,-9999.0,NW,4.6,-,N/A,,Clear,310,2013-07-13 03:00:00
6:00 AM,62.6,37.4,39,30.01,-9999.0,NW,13.8,-,N/A,,Clear,320,2013-07-13 04:00:00
7:00 AM,64.4,37.4,37,30.01,-9999.0,NW,12.7,-,N/A,,Clear,320,2013-07-13 05:00:00
8:00 AM,65,37,25,30.03,19,NNW,11.5,,,,,330,2013-07-13 06:00:00
8:00 AM,64.4,37.4,37,30.04,-9999.0,NNW,11.5,-,N/A,,Clear,330,2013-07-13 06:00:00
9:00 AM,66.2,39.2,37,30.04,-9999.0,NNW,12.7,-,N/A,,Clear,330,2013-07-13 07:00:00
10:00 AM,71.6,42.8,35,30.04,-9999.0,North,8.1,-,N/A,,Clear,350,2013-07-13 08:00:00
10:08 AM,73.4,42.8,33,30.04,-9999.0,North,8.1,-,N/A,,Clear,360,2013-07-13 08:08:00
11:00 AM,77.0,44.6,32,30.04,-9999.0,North,8.1,-,N/A,,Clear,360,2013-07-13 09:00:00
11:38 AM,82.4,44.6,26,30.04,-9999.0,NE,6.9,-,N/A,,Clear,40,2013-07-13 09:38:00
12:00 PM,82.4,44.6,26,30.04,-9999.0,NNE,5.8,-,N/A,,Clear,30,2013-07-13 10:00:00
1:00 PM,86.0,39.2,19,29.98,-9999.0,North,4.6,-,N/A,,Clear,350,2013-07-13 11:00:00
2:00 PM,80,55,31,29.97,25,SE,8.9,,,,Scattered Clouds,130,2013-07-13 12:00:00
2:00 PM,80.6,53.6,39,29.98,-9999.0,SE,4.6,-,N/A,,Clear,130,2013-07-13 12:00:00
2:08 PM,73.4,55.4,53,29.98,-9999.0,South,11.5,-,N/A,,Clear,190,2013-07-13 12:08:00
3:00 PM,73.4,51.8,47,30.01,-9999.0,South,11.5,-,N/A,,Clear,180,2013-07-13 13:00:00
4:00 PM,69.8,55.4,60,30.01,-9999.0,South,8.1,-,N/A,,Clear,190,2013-07-13 14:00:00
4:30 PM,68.0,55.4,64,30.01,-9999.0,SSW,10.4,-,N/A,,Clear,210,2013-07-13 14:30:00
5:00 PM,66.2,57.2,73,30.04,-9999.0,SSW,11.5,-,N/A,,Clear,210,2013-07-13 15:00:00
6:00 PM,62.6,59.0,88,30.04,-9999.0,WSW,9.2,-,N/A,,Clear,240,2013-07-13 16:00:00
7:00 PM,60.8,57.2,88,30.06,6.2,WSW,9.2,-,N/A,,Scattered Clouds,250,2013-07-13 17:00:00
7:08 PM,60.8,57.2,88,30.09,6.2,WSW,10.4,-,N/A,,Mostly Cloudy,250,2013-07-13 17:08:00
7:37 PM,59.0,55.4,88,30.09,6.2,WSW,12.7,-,N/A,,Scattered Clouds,250,2013-07-13 17:37:00
8:00 PM,59,55,84,30.11,6,WSW,22.4,,,,Scattered Clouds,250,2013-07-13 18:00:00
8:00 PM,59.0,55.4,88,30.09,6.2,WSW,11.5,-,N/A,,Partly Cloudy,250,2013-07-13 18:00:00